Location: Rotheul
(50.2849°N, 11.2349°E)
Time: 09:33:55
(UTC+02:00)

ISS - Pass Details

Date: 17 May 2018
Orbit: 402 x 407 km, 51.6° (Epoch: 27 May)

Event Time Altitude Azimuth Distance (km) Brightness Sun altitude
Exits shadow 02:38:48 27° 275° (W) 812 -2.5 -17.8°
Maximum altitude 02:40:25 70° 353° (N) 432 -3.6 -17.7°
Drops below altitude 10° 02:43:40 10° 78° (ENE) 1,459 -0.6 -17.5°
Sets 02:45:46 0° 81° (E) 2,319 0.5 -17.4°
